This demonstration page uses our WeatherBlox Daily Observations layout. Learn more.

Left ArrowRight Arrow

31.31129, -92.44514

Hourly Observations for December 28, 2020

Temp ( °F °C ) Dew Point ( °F °C ) Humidity (%) Winds ( mph kmh ) Pressure ( in mb ) Visibility ( mi km ) Precip ( " mm )
12:53 am 00:53 Clear 50 10 47 8.3 89 89 SE 7 11 30.14 1021 10 16 0.00 0.00
1:53 am 01:53 Clear 50 10 48 8.9 93 93 SE 6 9 30.15 1021 10 16 0.00 0.00
2:53 am 02:53 Clear 49 9.4 48 8.9 97 97 ESE 5 7 30.16 1021 10 16 0.00 0.00
3:53 am 03:53 Mostly Cloudy 50 10 48 8.9 93 93 ESE 5 7 30.16 1021 10 16 0.00 0.00
4:53 am 04:53 Partly Cloudy 50 10 48 8.9 93 93 ESE 5 7 30.17 1022 10 16 0.00 0.00
5:53 am 05:53 Mostly Clear 48 8.9 47 8.3 96 96 ESE 3 6 30.19 1022 10 16 0.00 0.00
6:53 am 06:53 Mostly Cloudy 49 9.4 47 8.3 93 93 ESE 3 6 30.21 1023 10 16 0.00 0.00
7:53 am 07:53 Cloudy 52 11.1 50 10 93 93 ESE 3 6 30.24 1024 10 16 0.00 0.00
8:53 am 08:53 Partly Cloudy with Mist and Fog 53 11.7 51 10.6 93 93 SE 5 7 30.26 1025 6 10 0.00 0.00
9:53 am 09:53 Mostly Cloudy 60 15.6 54 12.2 80 80 S 6 9 30.27 1025 10 16 0.00 0.00
10:53 am 10:53 Mostly Cloudy 65 18.3 57 13.9 76 76 S 3 6 30.27 1025 10 16 0.00 0.00
11:53 am 11:53 Cloudy 69 20.6 57 13.9 66 66 Calm 30.24 1024 10 16 0.00 0.00
12:53 pm 12:53 Mostly Cloudy 71 21.7 57 13.9 61 61 Calm 30.22 1024 10 16 0.00 0.00
1:53 pm 13:53 Cloudy 72 22.2 56 13.3 57 57 Calm 30.21 1023 10 16 0.00 0.00
2:53 pm 14:53 Partly Cloudy 72 22.2 55 12.8 55 55 E 5 7 30.21 1023 10 16 0.00 0.00
3:53 pm 15:53 Mostly Cloudy 71 21.7 57 13.9 61 61 S 5 7 30.22 1023 10 16 0.00 0.00
4:53 pm 16:53 Cloudy 69 20.6 56 13.3 63 63 NNE 7 11 30.23 1024 10 16 0.00 0.00
5:53 pm 17:53 Cloudy 67 19.4 57 13.9 71 71 ENE 7 11 30.24 1024 10 16 0.00 0.00
6:53 pm 18:53 Mostly Cloudy 64 17.8 56 13.3 75 75 ENE 10 17 30.26 1025 10 16 0.00 0.00
7:53 pm 19:53 Clear 61 16.1 55 12.8 81 81 E 12 19 30.27 1025 10 16 0.00 0.00
8:53 pm 20:53 Clear 59 15 54 12.2 83 83 E 7 11 30.28 1025 10 16 0.00 0.00
9:53 pm 21:53 Clear 58 14.4 54 12.2 87 87 ENE 5 7 30.29 1026 10 16 0.00 0.00
10:53 pm 22:53 Mostly Cloudy 58 14.4 54 12.2 87 87 E 3 6 30.29 1026 10 16 0.00 0.00
11:53 pm 23:53 Mostly Cloudy 55 12.8 53 11.7 93 93 Calm 30.29 1026 10 16 0.00 0.00

Powered by AerisWeather